This is the latest recevied weather packets stored in our database for station/object KD4MBW. If no packets are shown the sender has not sent any weather packets the latest 1 day(s).
| Time | Temp. | Humidity | Pressure | Rain* | Wind** | Luminosity | Snow |
|---|---|---|---|---|---|---|---|
| 1836274855 | 23.89° C | 90% | 1016.6 hPa | 0 mm | 0 m/s | 0 W/m² | - |
| 1836274553 | 24.44° C | 89% | 1016.6 hPa | 0 mm | 0 m/s | 0 W/m² | - |
| 1836274407 | 23.89° C | 90% | 1016.5 hPa | 0 mm | 0 m/s | 0 W/m² | - |
| 1836274252 | 24.44° C | 88% | 1016.5 hPa | 0 mm | 0 m/s | 0 W/m² | - |
| 1836273951 | 25° C | 87% | 1016.5 hPa | 0 mm | 0 m/s | 0 W/m² | - |
| 1778032868 | 20.56° C | 96% | 1015.8 hPa | 0 mm | 0.45 m/s, 250° | 0 W/m² | - |
| 1778032565 | 20.56° C | 96% | 1015.9 hPa | 0 mm | 0.89 m/s, 245° | 0 W/m² | - |
| 1778032262 | 20.56° C | 96% | 1015.9 hPa | 0 mm | 0 m/s | 0 W/m² | - |
| 1778031960 | 20.56° C | 96% | 1015.6 hPa | 0 mm | 0 m/s | 0 W/m² | - |
| 1778031655 | 20.56° C | 95% | 1015.4 hPa | 0 mm | 0.89 m/s, 251° | 0 W/m² | - |
| 1778031353 | 21.11° C | 95% | 1015.6 hPa | 0 mm | 0.89 m/s, 236° | 0 W/m² | - |
| 1778031050 | 21.11° C | 95% | 1015.2 hPa | 0 mm | 1.79 m/s, 208° | 0 W/m² | - |
| 1778030746 | 21.11° C | 95% | 1015.4 hPa | 0 mm | 1.34 m/s, 214° | 0 W/m² | - |
| 1778030442 | 21.11° C | 94% | 1015.3 hPa | 0 mm | 1.34 m/s, 221° | 0 W/m² | - |
| 1778030140 | 21.11° C | 94% | 1015.4 hPa | 0 mm | 0.89 m/s, 219° | 0 W/m² | - |
| 1778029836 | 21.11° C | 94% | 1015.3 hPa | 0 mm | 1.79 m/s, 219° | 0 W/m² | - |
| 1778029531 | 21.11° C | 94% | 1015.2 hPa | 0 mm | 1.34 m/s, 240° | 0 W/m² | - |
| 1778029227 | 21.67° C | 93% | 1015.2 hPa | 0 mm | 1.34 m/s, 227° | 0 W/m² | - |
| 1778028924 | 21.67° C | 93% | 1015.2 hPa | 0 mm | 1.79 m/s, 204° | 0 W/m² | - |
| 1778028620 | 21.67° C | 92% | 1014.9 hPa | 0 mm | 1.79 m/s, 204° | 0 W/m² | - |
| 1778028318 | 21.67° C | 92% | 1015.1 hPa | 0 mm | 1.79 m/s, 203° | 0 W/m² | - |
| 1778028014 | 21.67° C | 91% | 1015 hPa | 0 mm | 1.34 m/s, 221° | 0 W/m² | - |
| 1778027710 | 21.67° C | 90% | 1015 hPa | 0 mm | 1.79 m/s, 203° | 0 W/m² | - |
| 1778027406 | 22.22° C | 90% | 1015.1 hPa | 0 mm | 1.79 m/s, 228° | 1 W/m² | - |
| 1778027103 | 22.22° C | 89% | 1014.9 hPa | 0 mm | 1.79 m/s, 195° | 2 W/m² | - |
* Rain latest hour (hover to see other rain measurements)
** Current wind speed in m/s (hover to see current wind gust speed)